DeKalb, IL

12:24 AM CDT on July 25, 2017 (GMT -0500)
De Kalb Taylor Municipal

Weather History for KDKB - May, 2013

Change the Weather History Date:

Tuesday, May 7, 2013

  Actual Average (KARR) Record (KARR)
Temperature  
Mean Temperature 61 °F -  
Max Temperature 75 °F 67 °F 85 °F (2007)
Min Temperature 47 °F 46 °F 32 °F (2017)
Degree Days  
Heating Degree Days 4    
Growing Degree Days 11 (Base 50)    
Moisture  
Dew Point 37 °F    
Average Humidity 43    
Maximum Humidity 73    
Minimum Humidity 18    
Precipitation  
Precipitation 0.00 in - - ()
Sea Level Pressure  
Sea Level Pressure 30.02 in    
Wind  
Wind Speed 4 mph (NE)    
Max Wind Speed 9 mph    
Max Gust Speed -    
Visibility 10 miles    
Events      
Averages and records for this station are not official NWS values.
T = Trace of Precipitation, MM = Missing Value Source: NWS Daily Summary

Daily Weather History Graph

Daily Weather History Graph

Search for Another Location

Airport or City:

Trip Planner

Search our weather history database for the weather conditions in past years. The results will help you decide how hot, cold, wet, or windy it might be!

Date:

Astronomy

May. 07, 2013 Rise Set
Actual Time 5:43 AM CDT 8:00 PM CDT
Civil Twilight 5:12 AM CDT 8:31 PM CDT
Nautical Twilight 4:33 AM CDT 9:09 PM CDT
Astronomical Twilight 3:51 AM CDT 9:52 PM CDT
Moon 4:19 AM CDT (5/7) 5:58 PM CDT (5/7)
Length of Visible Light 15h 19m
Length of Day
14h 17m
Waning Crescent, 5% of the Moon is Illuminated
May 7
Waning Crescent
May 9
New
May 17
First Quarter
May 24
Full
May 31
Last Quarter

Hourly Weather History & Observations

Time (CDT) Temp. Dew Point Humidity Pressure Visibility Wind Dir Wind Speed Gust Speed Precip Events Conditions
12:15 AM 51.4 °F 35.6 °F 55% 30.03 in 10.0 mi East 4.6 mph - N/A   Clear
12:35 AM 50.4 °F 36.0 °F 58% 30.03 in 10.0 mi Calm Calm - N/A   Clear
12:55 AM 50.2 °F 37.4 °F 62% 30.03 in 10.0 mi Calm Calm - N/A   Clear
1:15 AM 50.2 °F 37.2 °F 61% 30.02 in 10.0 mi Calm Calm - N/A   Clear
1:35 AM 50.2 °F 37.2 °F 61% 30.02 in 10.0 mi Calm Calm - N/A   Clear
1:55 AM 50.0 °F 36.9 °F 61% 30.03 in 10.0 mi Calm Calm - N/A   Clear
2:15 AM 50.4 °F 35.6 °F 57% 30.02 in 10.0 mi Calm Calm - N/A   Clear
2:35 AM 50.2 °F 35.8 °F 58% 30.02 in 10.0 mi Calm Calm - N/A   Clear
2:55 AM 50.0 °F 37.4 °F 62% 30.02 in 10.0 mi Calm Calm - N/A   Clear
3:15 AM 49.8 °F 37.2 °F 62% 30.02 in 10.0 mi Calm Calm - N/A   Clear
3:35 AM 47.1 °F 39.0 °F 73% 30.02 in 10.0 mi NW 5.8 mph - N/A   Clear
3:55 AM 49.6 °F 36.7 °F 61% 30.02 in 10.0 mi NW 4.6 mph - N/A   Clear
4:15 AM 50.2 °F 35.8 °F 58% 30.02 in 10.0 mi NNW 5.8 mph - N/A   Clear
4:35 AM 48.9 °F 37.8 °F 65% 30.02 in 10.0 mi NNW 4.6 mph - N/A   Clear
4:55 AM 48.9 °F 37.6 °F 65% 30.02 in 10.0 mi NNW 3.5 mph - N/A   Clear
5:15 AM 49.1 °F 37.4 °F 64% 30.02 in 10.0 mi NNW 4.6 mph - N/A   Clear
5:35 AM 48.2 °F 37.2 °F 66% 30.03 in 10.0 mi North 4.6 mph - N/A   Clear
5:55 AM 48.0 °F 36.5 °F 64% 30.04 in 10.0 mi NNW 4.6 mph - N/A   Clear
6:15 AM 48.9 °F 36.5 °F 62% 30.04 in 10.0 mi NNW 6.9 mph - N/A   Clear
6:35 AM 48.2 °F 37.8 °F 67% 30.05 in 10.0 mi NNW 4.6 mph - N/A   Clear
6:55 AM 50.5 °F 40.1 °F 67% 30.05 in 10.0 mi NNW 4.6 mph - N/A   Clear
7:15 AM 52.7 °F 40.8 °F 64% 30.05 in 10.0 mi North 3.5 mph - N/A   Clear
7:35 AM 55.0 °F 40.6 °F 58% 30.06 in 10.0 mi NW 3.5 mph - N/A   Clear
7:55 AM 56.1 °F 40.5 °F 56% 30.06 in 10.0 mi NW 4.6 mph - N/A   Clear
8:15 AM 58.3 °F 39.9 °F 50% 30.06 in 10.0 mi NW 5.8 mph - N/A   Clear
8:35 AM 61.2 °F 39.6 °F 45% 30.06 in 10.0 mi NNW 5.8 mph - N/A   Clear
8:55 AM 63.3 °F 37.8 °F 39% 30.06 in 10.0 mi North 8.1 mph - N/A   Clear
9:15 AM 63.7 °F 35.6 °F 35% 30.06 in 10.0 mi North 9.2 mph - N/A   Clear
9:35 AM 65.5 °F 33.8 °F 31% 30.06 in 10.0 mi North 9.2 mph - N/A   Clear
9:55 AM 67.1 °F 35.4 °F 31% 30.06 in 10.0 mi North 8.1 mph - N/A   Clear
10:15 AM 68.5 °F 33.6 °F 28% 30.05 in 10.0 mi NNW 8.1 mph - N/A   Clear
10:35 AM 69.1 °F 32.7 °F 26% 30.06 in 10.0 mi NNW 5.8 mph - N/A   Clear
10:55 AM 70.3 °F 30.7 °F 23% 30.05 in 10.0 mi North 4.6 mph - N/A   Clear
11:15 AM 70.5 °F 32.2 °F 24% 30.05 in 10.0 mi North 6.9 mph - N/A   Clear
11:35 AM 71.2 °F 27.7 °F 20% 30.04 in 10.0 mi NE 4.6 mph - N/A   Clear
11:55 AM 72.1 °F 30.7 °F 22% 30.04 in 10.0 mi NW 3.5 mph - N/A   Clear
12:15 PM 72.3 °F 26.2 °F 18% 30.04 in 10.0 mi Calm Calm - N/A   Clear
12:35 PM 73.4 °F 30.2 °F 20% 30.03 in 10.0 mi Calm Calm - N/A   Clear
12:55 PM 73.0 °F 29.7 °F 20% 30.03 in 10.0 mi Calm Calm - N/A   Clear
1:15 PM 73.6 °F 31.3 °F 21% 30.02 in 10.0 mi NE 8.1 mph - N/A   Clear
1:35 PM 73.8 °F 33.4 °F 23% 30.02 in 10.0 mi SSE 3.5 mph - N/A   Clear
1:55 PM 73.9 °F 31.8 °F 21% 30.01 in 10.0 mi NE 3.5 mph - N/A   Clear
2:15 PM 73.6 °F 30.6 °F 20% 30.01 in 10.0 mi SW 3.5 mph - N/A   Clear
2:35 PM 74.5 °F 33.6 °F 22% 30.01 in 10.0 mi ENE 4.6 mph - N/A   Clear
2:55 PM 75.4 °F 34.2 °F 22% 30.00 in 10.0 mi East 5.8 mph - N/A   Clear
3:15 PM 75.2 °F 33.6 °F 22% 30.00 in 10.0 mi SE 3.5 mph - N/A   Clear
3:35 PM 74.8 °F 33.1 °F 22% 29.99 in 10.0 mi NNW 3.5 mph - N/A   Clear
3:55 PM 75.4 °F 33.6 °F 22% 29.99 in 10.0 mi South 5.8 mph - N/A   Clear
4:15 PM 75.4 °F 36.1 °F 24% 29.99 in 10.0 mi ENE 9.2 mph - N/A   Clear
4:35 PM 75.0 °F 34.2 °F 23% 29.99 in 7.0 mi East 4.6 mph - N/A   Clear
4:55 PM 74.5 °F 36.5 °F 25% 29.99 in 10.0 mi East 4.6 mph - N/A   Clear
5:15 PM 74.8 °F 39.2 °F 28% 29.99 in 10.0 mi ENE 3.5 mph - N/A   Clear
5:35 PM 74.3 °F 40.6 °F 30% 29.99 in 10.0 mi ESE 5.8 mph - N/A   Clear
5:55 PM 73.6 °F 38.5 °F 28% 29.99 in 10.0 mi Calm Calm - N/A   Clear
6:15 PM 73.4 °F 39.7 °F 30% 29.99 in 10.0 mi East 8.1 mph - N/A   Clear
6:35 PM 72.1 °F 41.9 °F 34% 29.99 in 10.0 mi ESE 5.8 mph - N/A   Clear
6:55 PM 71.4 °F 41.2 °F 33% 29.99 in 10.0 mi East 4.6 mph - N/A   Clear
7:15 PM 70.5 °F 42.3 °F 36% 29.99 in 10.0 mi East 8.1 mph - N/A   Clear
7:35 PM 68.9 °F 42.4 °F 38% 29.99 in 10.0 mi East 5.8 mph - N/A   Clear
7:55 PM 66.9 °F 42.6 °F 41% 29.99 in 10.0 mi East 8.1 mph - N/A   Clear
8:15 PM 64.9 °F 44.4 °F 47% 30.00 in 10.0 mi East 8.1 mph - N/A   Clear
8:35 PM 63.1 °F 44.6 °F 51% 30.00 in 10.0 mi East 6.9 mph - N/A   Clear
8:55 PM 62.8 °F 43.9 °F 50% 30.01 in 10.0 mi East 5.8 mph - N/A   Clear
9:15 PM 61.2 °F 44.8 °F 55% 30.01 in 10.0 mi East 5.8 mph - N/A   Clear
9:35 PM 61.0 °F 43.7 °F 53% 30.01 in 10.0 mi East 5.8 mph - N/A   Clear
9:55 PM 60.8 °F 43.3 °F 53% 30.02 in 10.0 mi East 5.8 mph - N/A   Clear
10:15 PM 59.5 °F 43.7 °F 56% 30.02 in 10.0 mi East 6.9 mph - N/A   Clear
10:35 PM 59.2 °F 43.2 °F 55% 30.02 in 10.0 mi East 4.6 mph - N/A   Clear
10:55 PM 59.0 °F 43.7 °F 57% 30.02 in 10.0 mi Calm Calm - N/A   Clear
11:15 PM 58.1 °F 43.0 °F 57% 30.02 in 10.0 mi SE 3.5 mph - N/A   Clear
11:35 PM 58.3 °F 41.9 °F 54% 30.02 in 10.0 mi ESE 3.5 mph - N/A   Clear
11:55 PM 57.2 °F 42.1 °F 57% 30.02 in 10.0 mi ESE 3.5 mph - N/A   Clear